GW0720 Weather Reports


time (UTC)temp
F
wind
direction
speed
knots
gust
knots
rain 1hr
in
rain 24hr
in
rain mn
in
humidity
%
barometer
mb
20260906123056 71 238 0.0 2.6 0.00 0.56 0.00 88 1015.2
20260906121601 71 0 0.0 3.5 0.00 0.56 0.00 89 1015.1
20260906120057 70 0 0.0 0.0 0.00 0.56 0.00 92 1014.7
20260906114552 70 0 0.0 1.7 0.00 0.56 0.00 91 1014.7
20260906113104 70 0 0.0 0.0 0.00 0.56 0.00 93 1014.4
20260906111557 70 0 0.0 0.0 0.00 0.56 0.00 93 1014.3
20260906110058 70 0 0.0 0.9 0.00 0.56 0.00 93 1014.1
20260906104555 70 0 0.0 0.9 0.00 0.56 0.00 94 1014.0
20260906103102 70 0 0.0 1.7 0.00 0.56 0.00 94 1013.8
20260906101601 71 0 0.0 0.0 0.00 0.56 0.00 94 1013.6
20260906100058 71 0 0.0 0.9 0.00 0.56 0.00 94 1013.3
20260906094610 71 0 0.0 1.7 0.00 0.56 0.00 94 1013.1
20260906093112 71 0 0.0 0.9 0.00 0.56 0.00 95 1013.1
20260906091603 71 0 0.0 1.7 0.00 0.56 0.00 95 1013.0
20260906090139 71 245 0.0 2.6 0.00 0.56 0.00 95 1012.9
20260906084634 72 0 0.0 1.7 0.00 0.56 0.00 95 1012.8
20260906083104 72 0 0.0 0.0 0.00 0.56 0.00 96 1012.9
20260906081600 72 0 0.0 0.0 0.00 0.56 0.00 96 1012.8
20260906080110 72 0 0.0 0.0 0.00 0.56 0.00 96 1012.8
20260906074604 72 0 0.0 0.0 0.00 0.56 0.00 96 1012.7
20260906073056 72 0 0.0 0.9 0.00 0.56 0.00 96 1012.7
20260906071602 72 0 0.0 0.0 0.00 0.56 0.00 96 1012.5
20260906070103 72 0 0.0 0.9 0.00 0.56 0.00 96 1012.6
20260906064556 72 0 0.0 0.0 0.00 0.56 0.00 96 1012.4
20260906063056 72 0 0.0 0.0 0.00 0.56 0.00 96 1012.7
20260906061607 72 0 0.0 0.0 0.00 0.56 0.00 96 1012.7
20260906054609 72 0 0.0 0.9 0.00 0.56 0.00 96 1012.8
20260906053118 72 0 0.0 0.9 0.00 0.56 0.00 96 1012.8
20260906051601 72 0 0.0 0.9 0.00 0.56 0.00 96 1013.1
20260906050104 72 0 0.0 0.9 0.00 0.56 0.00 96 1013.0
20260906044621 72 0 0.0 0.9 0.00 0.56 0.00 96 1012.9
20260906043105 72 0 0.0 0.0 0.00 0.56 0.00 96 1013.0
20260906041608 71 0 0.0 0.0 0.00 0.56 0.00 96 1013.3
20260906040054 71 0 0.0 0.0 0.00 0.56 0.00 95 1013.1
20260906034600 71 0 0.0 0.0 0.00 0.56 0.56 95 1013.3
20260906033059 71 0 0.0 0.0 0.00 0.56 0.56 95 1013.0
20260906031557 72 0 0.0 0.0 0.00 0.56 0.56 94 1013.2
20260906030104 72 0 0.0 0.0 0.00 0.56 0.56 95 1013.1
20260906024622 72 0 0.0 0.0 0.00 0.56 0.56 94 1013.3
20260906023105 73 0 0.0 0.0 0.00 0.56 0.56 94 1013.3
20260906021600 73 0 0.0 0.0 0.00 0.56 0.56 94 1013.2
20260906020055 73 0 0.0 0.0 0.00 0.56 0.56 94 1013.2
20260906014559 74 0 0.0 0.0 0.00 0.56 0.56 94 1013.3
20260906013055 74 0 0.0 0.0 0.00 0.56 0.56 94 1013.1
20260906011559 74 0 0.0 0.0 0.00 0.56 0.56 94 1012.7
20260906010130 74 0 0.0 0.9 0.00 0.56 0.56 94 1012.4
20260906004601 74 0 0.0 0.0 0.00 0.56 0.56 93 1012.3
20260906003054 75 0 0.0 0.0 0.00 0.56 0.56 93 1012.2
20260906001604 75 0 0.0 0.0 0.00 0.56 0.56 93 1011.8
20260906000100 75 0 0.0 0.0 0.00 0.56 0.56 93 1011.6
20260905234558 75 0 0.0 0.0 0.00 0.58 0.56 93 1011.8
20260905233056 76 0 0.0 0.0 0.00 0.58 0.56 92 1011.4
20260905231600 76 0 0.0 0.0 0.00 0.58 0.56 92 1011.3
20260905230108 76 0 0.0 0.9 0.00 0.58 0.56 91 1011.8
20260905224601 76 0 0.0 0.0 0.00 0.66 0.56 91 1011.8
20260905223101 76 0 0.0 0.9 0.00 0.66 0.56 90 1011.8
20260905221557 76 0 0.0 0.9 0.00 0.66 0.56 90 1011.6
20260905220104 76 0 0.0 0.9 0.00 0.66 0.56 90 1011.5
20260905214557 76 0 0.0 2.6 0.00 0.70 0.56 90 1011.6
20260905213101 76 0 0.0 1.7 0.00 0.70 0.56 88 1011.7
20260905211605 76 0 0.0 1.7 0.00 0.70 0.56 89 1011.6
20260905210059 76 0 0.0 0.0 0.00 0.70 0.56 90 1011.7
20260905204553 76 0 0.0 1.7 0.00 0.70 0.56 91 1011.7
20260905203104 75 0 0.0 2.6 0.00 0.70 0.56 92 1011.6
20260905201608 75 0 0.0 0.9 0.00 0.70 0.56 94 1011.5
20260905200059 75 0 0.0 1.7 0.01 0.70 0.56 93 1011.6
20260905194555 75 0 0.0 1.7 0.01 0.70 0.56 94 1011.9
20260905193055 75 0 0.0 0.9 0.03 0.70 0.56 94 1011.9
20260905191601 75 0 0.0 0.9 0.03 0.70 0.56 94 1012.1
20260905190104 75 0 0.0 0.0 0.02 0.69 0.55 94 1012.7
20260905184612 75 0 0.0 0.0 0.02 0.69 0.55 93 1012.6
20260905183110 75 0 0.0 0.9 0.00 0.67 0.52 93 1012.6
20260905181601 75 0 0.0 1.7 0.01 0.67 0.52 92 1012.3
20260905180104 75 0 0.0 1.7 0.09 0.67 0.52 95 1012.6
20260905174605 74 0 0.0 1.7 0.21 0.67 0.52 94 1013.1
20260905173101 73 0 0.0 0.9 0.34 0.67 0.52 94 1013.1
20260905171559 73 0 0.0 1.7 0.44 0.66 0.52 93 1013.0
20260905170105 73 0 0.0 6.1 0.44 0.58 0.44 92 1013.8
20260905164605 75 292 0.9 4.3 0.32 0.46 0.32 91 1014.8
20260905163058 76 0 0.0 2.6 0.19 0.33 0.19 90 1014.5
20260905161602 78 0 0.0 0.9 0.08 0.22 0.08 87 1014.3
20260905160106 81 213 0.0 2.6 0.00 0.14 0.00 80 1013.7
20260905154605 83 54 0.0 0.0 0.00 0.14 0.00 79 1013.0
20260905153102 82 0 0.0 4.3 0.00 0.14 0.00 78 1013.2
20260905151602 83 0 0.9 6.1 0.00 0.14 0.00 76 1013.3
20260905144558 84 274 0.0 3.5 0.00 0.14 0.00 76 1013.3
20260905143104 82 0 0.0 1.7 0.00 0.14 0.00 85 1013.1
20260905141559 80 0 0.0 6.1 0.00 0.14 0.00 84 1013.2
20260905140107 76 0 0.0 3.5 0.00 0.14 0.00 91 1012.9
20260905134604 75 215 0.0 1.7 0.00 0.14 0.00 95 1012.7
20260905133100 74 0 0.0 2.6 0.00 0.14 0.00 97 1012.7
20260905131558 74 0 0.0 2.6 0.00 0.14 0.00 98 1012.8
20260905130101 73 0 0.0 0.0 0.00 0.14 0.00 98 1012.4
20260905124559 73 0 0.0 0.0 0.00 0.14 0.00 98 1012.7